Terminal Aerodrome Forecast
Issued by NWS Billings, MT

Home | Current Version | Previous Version | Graphics & Text | Print | Product List | Glossary On
Versions: 1 2 3 4 5 6 7 8 9 10 11 12 13 14 15 16 17 18 19 20 21 22 23 24 25 26 27 28 29 30 31 32
000
FTUS45 KBYZ 110526
TAFMLS
TAF
KMLS 110526Z 1106/1206 06008KT P6SM FEW100
     FM120000 04010KT P6SM VCTS SCT080CB BKN120=

USA.gov is the U.S. government's official web portal to all federal, state and local government web resources and services.